DELTA 1 DEB, 10716

Orbit data source: Space-Track

DELTA 1 DEB, 10716 is space debris in SSO originally from a launch on Thu, 29 Jul 1976 UTC launched from the Air Force Western Test Range (AFWTR). Debris objects in space refer to the collection of defunct objects orbiting the Earth. Examples of debris include non-operational satellites, rocket bodies, and fragments generated from explosions, collisions, or faulty payload assembly.

Loading next visibility...
Identifier
10716, 1976-077AM
Orbit
SSO
Country
Flag of USUS
Related business
Manufacturer
Unknown
Mission
Spacecraft
Bus & Motor
Unknown
Mass
Unknown
Launch date (UTC)
1976-07-29 (50 years ago)
Launch vehicle
Unknown
Launch site
Air Force Western Test Range (AFWTR)
Object type
Payload
Rocket body
Debris
Shape & HBR
Unknown shape, 0.1 m
Radar Cross Section
Small (<0.1 m²)

Expand to show TLE details & history
Last TLE update: 10 hours ago

TLE from 10 hours ago
0 DELTA 1 DEB
1 10716U 76077AM  26122.30366730  .00002634  00000-0  11079-1 0  9997
2 10716 102.7464 319.3988 0122384 184.5379 359.4374 12.82337429270914
Epoch: 2026-05-02T07:17Z
TLE epoch observation values (Epoch: 2026-05-02T07:17:16.854Z)
Latitude
-3.99275°
Longitude
168.95494°
Altitude
1,240.899 km
Speed
7.278 km/s
True Right ascension
09h 13m 59s
True Declination
-3° 58' 14"
Sunlit
Object was in daylight at epoch
Visualization orbit readout
Latitude
Unknown
Longitude
Unknown
Altitude
Unknown
Speed
Unknown
Apparent Right ascension
Unknown
Apparent Declination
Unknown
Sunlit
N/A
Visualization observer readout
Local Sidereal Time
00:38:47
Azimuth
Unknown
Elevation
Unknown
Doppler factor
Unknown
Orbital elements
Apogee altitude
1,423.983 km
Perigee altitude
1,235.321 km
Semi-major axis
7,707.789 km
Eccentricity
0.01224
Inclination
102.7464°
RAAN
319.3988°
Arg. of periapsis
184.5379°
True anomaly
359.42342°
Mean anomaly
359.4374°
Eccentric anomaly
359.43043°
Mean motion
3.20737 °/min
Orbital period
112.24 mins
BSTAR
0.011079
Loading maneuver chart data...
Computing Atmospheric mass density...
Loading historical data...
Loading historical data...
Loading historical data...
Loading historical data...
Loading historical data...
Loading historical data...
Loading historical data...

Documentation

Showing up to 5 results
|